Hourly Data Report for May 06, 2016

All times are specified in Local Standard Time (LST). Add 1 hour to adjust for Daylight Saving Time where and when it is observed.

LA RONGE RCS
SASKATCHEWAN

55°08'47.020" N
105°16'13.030" W
378.60 m
4064149
71586
XOX

Download Data

Hourly Data (May 2016)
Hourly Data Report for May 6, 2016
TIME Temp Definition
°C
Dew Point Definition
°C
Rel Hum Definition
%
Wind Dir Definition
10's deg

Wind Spd Definition
km/h
Visibility Definition
km
Stn Press Definition
kPa
Hmdx Definition


Wind Chill Definition


Weather Definition


00:00 6.8 4.7 87 26 4   96.89     LegendNANA
01:00 5.8 3.8 87 23 4   96.93     LegendNANA
02:00 4.7 2.8 88 25 4   96.99     LegendNANA
03:00 4.7 3.0 88 27 8   96.99     LegendNANA
04:00 3.1 1.7 90 27 4   97.00     LegendNANA
05:00 3.5 2.2 91 28 8   97.06     LegendNANA
06:00 3.8 2.4 91 31 6   97.13     LegendNANA
07:00 5.9 3.3 83 29 11   97.28     LegendNANA
08:00 6.8 2.6 75 30 12   97.37     LegendNANA
09:00 9.9 2.4 59 29 11   97.39     LegendNANA
10:00 11.3 0.8 48 31 21   97.39     LegendNANA
11:00 12.5 0.9 45 31 19   97.39     LegendNANA
12:00 12.5 -1.2 39 31 23   97.41     LegendNANA
13:00 14.6 -1.3 33 30 20   97.38     LegendNANA
14:00 14.6 -3.0 30 30 19   97.35     LegendNANA
15:00 16.0 -3.9 25 31 23   97.31     LegendNANA
16:00 16.1 -3.6 26 30 23   97.28     LegendNANA
17:00 16.2 -5.3 23 31 26   97.26     LegendNANA
18:00 16.2 -6.0 21 30 25   97.24     LegendNANA
19:00 16.1 -7.3 19 30 21   97.24     LegendNANA
20:00 15.2 -6.6 22 30 13   97.24     LegendNANA
21:00 11.5 -4.7 32 28 4   97.22     LegendNANA
22:00 8.8 -6.0 34 26 3   97.22     LegendNANA
23:00 5.6 -4.6 48 28 4   97.21     LegendNANA

Notes on Data Quality.

Legend

  • E = Estimated
  • M = Missing
  • NA = Not Available
Date modified: